www.pogodaiklimat.ru

Погода и климат >> Архив погоды >> Малайзия >> Сандакан


ПОГОДА в Сандакане

  • Прогноз погоды в Сандакане
  • Монитор погоды в Сандакане

АРХИВ ПОГОДЫ в Сандакане

Время (UTC), дата Ветер
(напр.,м/с)
 
Видим.   Явления Облачность Т
(С)
Тd
(С)
f
(%)
Тe
(С)
Тes
(С)
Комфортность P
(гПа)
Po
(гПа)
Тmin
(С)
Tmax
(С)
R
(мм)
R24
(мм)
S
(см)
00 14.06 Ю 2 7000 м мгла 9/4 <50 м
[Cu Sc Ac lent Ci sp]
+26.6 +25.1 91 +38 +40 очень
душно
1010.4 1009.2 +24.1 1
03 14.06 Ю 1 13 км осадки на расстоянии 9/4 450 м
[Cu Sc Ac lent Cs]
+28.8 +25.1 80 +42 +49 опасность
перегрева
1011.2 1010.0
06 14.06 В 2 13 км мгла 9/4 450 м
[Cu Sc Ac lent Cs]
+30.2 +25.9 78 +45 +51 опасность
перегрева
1008.3 1007.1
09 14.06 ЮВ 2 13 км мгла 9/4 480 м
[Cb cap Ac lent Cs]
+30.9 +24.9 70 +44 +45 опасность
перегрева
1007.5 1006.3
12 14.06 З 1 14 км 9/3 480 м
[Cu Sc Ac trans Ci sp]
+28.2 +25.5 85 +41 +41 опасность
перегрева
1008.7 1007.5 +31.0
15 14.06 З 1 14 км 9/3 480 м
[Cu Sc Ac lent Ci sp]
+27.2 +26.1 94 +41 +41 опасность
перегрева
1010.7 1009.5
18 14.06 В 1 14 км гроза без осадков 9/4 450 м
[Cb cap Ac lent Cs]
+25.1 +24.6 97 +35 +35 очень
душно
1009.6 1008.4 12
21 14.06 В 2 8000 м слаб. ливневой дождь, в посл. час гроза 10/5 240 м
[Cu Sc Ac As]
+25.0 +24.5 97 +35 +35 очень
душно
1009.2 1008.0
00 15.06 Ю 1 11 км слаб. дождь {гроза} 9/5 420 м
[Cu Sc Ac lent Cs]
+26.6 +25.5 94 +39 +41 очень
душно
1011.3 1010.1 +24.8 14
03 15.06 Ю 2 13 км мгла {дождь} 9/3 480 м
[Cu Sc Ac trans Cs]
+30.7 +25.9 76 +46 +54 опасность
перегрева
1010.2 1009.0
06 15.06 В 2 13 км мгла {дождь} 9/4 480 м
[Cu Sc Ac trans Ci sp]
+32.0 +26.5 73 +49 +54 опасность
перегрева
1006.9 1005.7 0.0
09 15.06 В 2 12 км мгла 9/3 450 м
[Cu Sc Ac trans Ci sp]
+30.5 +26.9 81 +48 +49 опасность
перегрева
1006.2 1005.0
12 15.06 В 2 12 км зарница 9/3 480 м
[Cb cap Ac trans Ci sp]
+28.4 +26.5 89 +43 +43 опасность
перегрева
1008.8 1007.6 +32.8
15 15.06 С 4 1000 м гроза, ливневой дождь 9/8 240 м
[Cb cap Ac lent Cs]
+24.9 +24.2 96 +34 +34 очень
душно
1011.2 1010.0
18 15.06 З 3 8000 м слаб. дождь {гроза} 10/8 270 м
[Cu Sc Ac lent Cs]
+24.2 +23.9 98 +33 +33 очень
душно
1009.9 1008.7 48
21 15.06 ЮЗ 1 7000 м дымка {дождь} 9/4 450 м
[Cu Sc Ac lent Cs]
+24.0 +23.6 98 +33 +33 очень
душно
1009.8 1008.6
00 16.06 Ю 2 12 км мгла {дождь} 9/3 480 м
[Cu Sc Ac trans Cs]
+26.8 +24.3 86 +37 +40 очень
душно
1010.7 1009.5 +24.0 48
03 16.06 Ю 2 12 км мгла 9/3 480 м
[Cu Sc Ac trans Cs]
+30.6 +24.1 68 +42 +50 опасность
перегрева
1010.5 1009.3
06 16.06 СВ 3 12 км мгла 9/4 450 м
[Cu Sc Ac trans Cs]
+31.5 +25.7 71 +46 +51 опасность
перегрева
1008.6 1007.4
09 16.06 С 3 13 км мгла 9/3 480 м
[Cu Sc Ac lent Ci sp]
+30.2 +24.8 73 +43 +44 опасность
перегрева
1007.9 1006.7
12 16.06 С 3 14 км зарница 8/3 480 м
[Cb cap Ac lent Ci sp]
+28.6 +24.4 78 +40 +40 очень
душно
1009.8 1008.6 +31.8
15 16.06 СВ 3 14 км 9/3 450 м
[Cu Sc Ac trans Ci sp]
+28.6 +24.9 80 +41 +41 опасность
перегрева
1010.9 1009.7
18 16.06 ЮЗ 3 14 км 9/3 450 м
[Cu Sc Ac trans Ci sp]
+26.9 +25.1 90 +39 +39 очень
душно
1010.1 1008.9
21 16.06 Ю 1 14 км 9/3 480 м
[Cu Sc Ac trans Ci sp]
+24.2 +22.7 91 +32 +32 очень
душно
1009.5 1008.3
00 17.06 ЮВ 2 12 км мгла 9/3 480 м
[Cu Sc Ac lent Ci sp]
+26.8 +23.3 81 +36 +38 очень
душно
1010.7 1009.5 +24.1
03 17.06 Ю 3 13 км мгла 9/3 480 м
[Cu Sc Ac lent Ci sp]
+29.6 +24.0 72 +41 +48 опасность
перегрева
1011.3 1010.1
06 17.06 Ю 2 13 км мгла 9/4 480 м
[Cu Sc Ac lent Ci sp]
+32.5 +25.1 65 +46 +52 опасность
перегрева
1008.7 1007.5
09 17.06 В 2 13 км мгла 9/4 480 м
[Cu Sc Ac trans Ci sp]
+31.2 +25.5 72 +46 +46 опасность
перегрева
1008.3 1007.1
12 17.06 ЮВ 2 14 км в посл. час гроза 9/4 450 м
[Cb cap Ac trans Ci sp]
+28.2 +25.1 83 +41 +41 опасность
перегрева
1010.5 1009.3 +32.8
15 17.06 ЮЗ 2 14 км зарница 9/5 450 м
[Cb cap Ac lent Ci sp]
+25.6 +23.2 87 +34 +34 очень
душно
1011.9 1010.7
18 17.06 штиль 0 14 км 9/5 450 м
[Cu Sc Ac lent Ci sp]
+25.4 +24.1 93 +35 +35 очень
душно
1010.2 1009.0
21 17.06 ЮЗ 2 14 км 9/3 450 м
[Cu Sc Ac lent Ci sp]
+24.5 +23.6 95 +33 +33 очень
душно
1009.9 1008.7
00 18.06 ЮЗ 2 13 км мгла 9/3 2000 м
[Cu Sc Ac trans Ci sp]
+27.4 +23.8 81 +38 +40 очень
душно
1011.3 1010.1 +24.5
03 18.06 В 3 13 км мгла 8/4 480 м
[Cu Sc Ac trans Ci sp]
+31.0 +25.0 70 +44 +51 опасность
перегрева
1010.3 1009.1
06 18.06 СВ 3 13 км мгла 9/4 450 м
[Cu Sc Ac lent Ci sp]
+31.1 +24.5 68 +44 +48 опасность
перегрева
1008.2 1007.0
09 18.06 СВ 4 13 км мгла 9/4 480 м
[Cb cap Ac trans Ci fib]
+30.6 +23.9 67 +42 +42 опасность
перегрева
1007.7 1006.5
12 18.06 СВ 2 14 км зарница 9/4 480 м
[Cb cap Ac trans Ci sp]
+28.5 +24.8 80 +41 +41 опасность
перегрева
1009.7 1008.5 +32.4
15 18.06 ЮЗ 2 14 км 9/3 480 м
[Cu Sc Ac lent Ci sp]
+26.7 +24.2 86 +37 +37 очень
душно
1010.4 1009.2
18 18.06 ЮЗ 2 14 км 9/3 480 м
[Cu Sc Ac lent Ci sp]
+24.9 +23.4 91 +33 +33 очень
душно
1008.8 1007.6
21 18.06 ЮЗ 3 14 км 9/3 480 м
[Cu Sc Ac lent Ci sp]
+24.5 +23.3 93 +33 +33 очень
душно
1009.1 1007.9
00 19.06 ЮЗ 2 12 км мгла 9/3 2000 м
[Cu Sc Ac trans Ci fib]
+26.7 +23.8 84 +37 +39 очень
душно
1010.0 1008.8 +24.4
03 19.06 СЗ 2 13 км мгла 8/3 480 м
[Cu Sc Ac trans Ci fib]
+32.2 +24.3 63 +44 +53 опасность
перегрева
1009.1 1007.9
06 19.06 СВ 4 13 км мгла 8/3 450 м
[Cu Sc Ac trans Ci fib]
+32.5 +25.2 65 +46 +51 опасность
перегрева
1007.0 1005.8
09 19.06 СВ 4 12 км мгла 9/4 450 м
[Cb cap Ac trans Ci sp]
+31.1 +24.9 70 +45 +45 опасность
перегрева
1006.2 1005.0
12 19.06 В 2 14 км в посл. час гроза 9/3 480 м
[Cu Sc Ac trans Ci sp]
+28.2 +24.7 81 +40 +40 очень
душно
1008.1 1006.9 +32.9
15 19.06 штиль 0 14 км зарница 8/4 480 м
[Cb cap Ac trans Ci fib]
+27.9 +24.9 84 +40 +40 очень
душно
1009.1 1007.9
18 19.06 ЮВ 1 7000 м слаб. ливневой дождь, в посл. час гроза 9/8 400 м
[Cb cap Ac lent Cs]
+24.1 +23.8 98 +33 +33 очень
душно
1008.9 1007.7 43
21 19.06 Ю 1 10 км в посл. час дождь 9/3 450 м
[Cu Sc Ac trans Ci sp]
+24.4 +23.9 97 +33 +33 очень
душно
1008.2 1007.0
00 20.06 ЮЗ 2 12 км мгла {дождь} 9/3 480 м
[Cu Sc Ac trans Ci sp]
+26.1 +25.2 95 +38 +40 очень
душно
1009.7 1008.5 +23.6 44
03 20.06 Ю 3 12 км мгла 9/4 450 м
[Cu Sc Ac trans Ci sp]
+30.9 +25.4 73 +45 +51 опасность
перегрева
1009.4 1008.2
06 20.06 В 6 11 км гроза без осадков 9/5 270 м
[Cb cap Ac trans Ci sp]
+29.2 +25.0 78 +42 +44 опасность
перегрева
1007.6 1006.4
09 20.06 штиль 0 15 км {гроза, ливн. осадки} 9/4 480 м
[Cb cap Ac lent Cs]
+28.1 +24.6 81 +40 +41 очень
душно
1006.9 1005.7
12 20.06 штиль 0 14 км {гроза, ливн. осадки} 9/3 480 м
[Cu Sc Ac lent Cs]
+26.5 +25.5 94 +39 +39 очень
душно
1008.9 1007.7 +33.1 0.0
15 20.06 ЮЗ 1 14 км 8/3 480 м
[Cu Sc Ac trans Ci fib]
+26.3 +25.1 93 +38 +38 очень
душно
1009.5 1008.3
18 20.06 З 2 10 км дымка 8/3 450 м
[Cu Sc Ac trans Ci fib]
+25.5 +24.9 96 +36 +36 очень
душно
1008.6 1007.4

 

Местоположение метеостанции Сандакан (Малайзия): широта 5.90 долгота 118.06 высота над уровнем моря 13 м.

В архиве по умолчанию представлена погода в Сандакане за последнюю неделю. Архивные данные за месяц целиком и за предыдущие месяцы, начиная с января 2011 года, Вы можете получить, выбрав интересующий диапазон дат из раскрывающегося списка и нажав кнопку "Ввод!".


*Определитесь, кто Вы:
робот инопланетянин человек

Внимание! Время в таблицах - всемирное. Для получения местного времени необходимо прибавить поправку, которая равна 8 ч.

Смотрите также архив погоды в соседних городах и на ближайших метеорологических станциях:

Погода в Тавау (Малайзия) (182 км)
Погода в Кота-Кинабалу (Малайзия) (222 км)
Погода в Таракане (Индонезия) (291 км)
Погода в Лабуане (Малайзия) (318 км)
Погода в Танджунгселоре (Индонезия) (349 км)
Погода в Лонгбаване (Индонезия) (358 км)
Погода в Бруней аэропорту (Бруней) (363 км)
Погода в Танджунгредепе (Индонезия) (426 км)
Погода в Пуэрто-Принцесе (Филиппины) (435 км)
Погода в Замбоанге (Филиппины) (456 км)

Пояснения к столбцам:

Ветер - указаны скорость ветра в м/с - средняя за 10 мин, порывы в срок и между сроками (в фигурных скобках) и направление, откуда дует ветер: С - северный, СВ - северо-восточный, В - восточный, ЮВ - юго-восточный, Ю - южный, ЮЗ - юго-западный, З - западный, СЗ - северо-западный.
Видимость - горизонтальная дальность видимости в метрах или километрах. При видимости от 1 до 10 км при отсутствии осадков обычно наблюдается дымка, при ухудшении видимости до 1 км и менее - туман. В сухую погоду видимость может ухудшаться дымом, пылью или мглою.
Явления - указаны атмосферные явления, наблюдавшиеся в срок или в последний час перед сроком; фигурными скобками обозначены явления, наблюдавшиеся между сроками (за 1-3 часа до срока); квадратными скобками обозначены град или гололедные отложения с указанием их диаметра в мм.
Облачность - указаны через наклонную черту общая и нижняя облачность в баллах и высота нижней границы облаков в метрах; квадратными скобками обозначены формы облаков: Ci - перистые, Cs - перисто-слоистые, Cc - перисто-кучевые, Ac - высококучевые, As - высокослоистые, Sc - слоисто-кучевые, Ns - слоисто-дождевые, Cu - кучевые, Cb - кучево-дождевые. Подробнее классификацию облаков см. в Атласе облаков (PDF).
T - Температура воздуха - температура, измеренная на высоте 2 м над землей.
Td - Температура точки росы - температура, при понижении до которой содержащийся в воздухе водяной пар достигнет насыщения.
f - Относительная влажность воздуха - влажноcть воздуха, измеренная на высоте 2 м над землей.
Te - Эффективная температура - температура, которую ощущает одетый по сезону человек в тени. Характеристика душности погоды. При расчете учитывается влияние влажности воздуха и скорости ветра на теплоощущения человека.
Tes - Эффективная температура на солнце - температура, которую ощущает человек, с поправкой на солнечный нагрев. Характеристика знойности погоды. Зависит от высоты солнца над горизонтом, облачности и скорости ветра. Ночью, в пасмурную погоду, а также при ветре 12 м/с и более поправка равна нулю.
P - Атмосферное давление - приведенное к уровню моря атмосферное давление.
Po - Атмосферное давление - измеренное на уровне метеостанции атмосферное давление.
Tmin - Минимальная температура - минимум температуры воздуха на высоте 2 м над землей.
Tmax - Максимальная температура - максимум температуры воздуха на высоте 2 м над землей.
R - Количество осадков - Количество выпавших осадков за период времени, мм. При наведении курсора мыши на число - период времени, за который выпало указанное количество осадков.
R24 - Количество осадков - Количество выпавших осадков за 24 часа, мм.
S - Снежный покров - Высота снежного покрова, см. При наведении курсора мыши на число - состояние снежного покрова и степень покрытия местности в баллах.